#timestamp,LO_Frequency,Hit,StdDev 
1552896015.9,286046995.1,Y
1552896035.7,286046999.5,P
1552896055.5,286046999.5,N
1552896075.4,286046996.6,P
1552896095.2,286046997.6,N
1552896115.0,286046998.0,N
1552896115.9,286046998.0,N
1552896135.8,286046995.4,Y
1552896155.6,286046997.9,P
1552896175.4,286046995.3,P
1552896195.3,286046995.6,P
1552896215.1,286046996.3,N
1552896235.8,286046993.4,Y
1552896255.7,286046996.5,P
1552896275.5,286046997.3,P
1552896295.3,286046997.8,P
1552896315.2,286046998.0,Y
1552896335.0,286046998.3,P
1552896335.9,286046998.3,N
1552896355.7,286046999.4,N
1552896375.6,286046999.3,N
1552896395.4,286046997.0,Y
1552896415.2,286046998.3,P
1552896435.1,286047001.0,P
1552896436.0,286047001.0,N
1552896455.8,286046998.4,N
1552896475.6,286046999.1,N
1552896495.5,286046999.6,N
1552896515.3,286046999.2,N
1552896535.1,286046999.2,N
1552896555.9,286046996.8,Y
1552896575.7,286046996.7,P
1552896595.5,286046996.7,N
1552896615.4,286046997.2,N
1552896635.2,286046998.0,N
1552896655.0,286046997.7,N
1552896655.9,286046997.7,N
1552896675.8,286046994.9,Y
1552896695.6,286046999.3,P
1552896715.4,286046999.0,N
1552896735.3,286046999.2,N
1552896755.1,286046999.6,N
1552896756.0,286046999.6,N
1552896775.8,286046997.1,Y
1552896795.7,286046998.8,P
1552896815.5,286046998.8,P
1552896835.3,286046998.9,P
1552896855.2,286046999.4,Y
1552896875.0,286046998.2,P
1552896875.9,286046998.2,P
1552896895.7,286046998.5,P
1552896915.6,286046998.7,Y
1552896935.4,286047000.4,P
1552896955.2,286047001.0,N
1552896975.1,286047001.1,N
1552896976.0,286047001.1,N
1552896995.8,286047001.2,N
1552897015.6,286046998.1,N
1552897035.5,286047001.1,N
1552897055.3,286046998.7,N
1552897075.1,286046998.4,N
1552897095.9,286046999.3,N
1552897115.7,286046998.7,N
1552897135.5,286046998.3,N
1552897155.4,286046998.8,N
1552897175.2,286046999.3,N
1552897195.0,286046996.5,N
1552897195.9,286046996.5,N
1552897215.7,286046997.0,N
1552897235.6,286046999.5,N
1552897255.4,286046997.2,N
1552897275.2,286046997.0,N
1552897295.1,286046996.8,N
1552897296.0,286046996.8,N
1552897315.8,286046997.7,N
1552897335.6,286046997.5,N
1552897355.5,286046994.9,Y
1552897375.3,286046999.6,P
1552897395.1,286046997.4,P
1552897415.9,286046995.3,P
1552897435.7,286046998.0,N
1552897455.5,286046997.8,N
1552897475.4,286046995.1,Y
1552897495.2,286046999.3,P
1552897515.0,286046999.3,N
1552897515.9,286046999.3,N
1552897535.8,286046999.2,N
1552897555.6,286046997.2,Y
1552897575.4,286046999.3,P
1552897595.3,286046996.7,P
1552897615.1,286046997.2,N
1552897635.8,286046997.5,N
1552897655.7,286046997.6,N
1552897675.5,286046997.8,N
1552897695.3,286046995.4,Y
1552897715.2,286046996.6,P
1552897735.9,286046999.3,N
1552897755.7,286046996.8,N
1552897775.6,286046994.9,Y
1552897795.4,286046998.6,P
1552897815.2,286046996.5,P
1552897835.1,286046999.3,N
1552897836.0,286046999.3,N
1552897855.8,286046998.8,N
1552897875.6,286047001.2,N
1552897895.5,286047000.9,N
1552897915.3,286046998.5,N
1552897935.1,286046998.1,N
1552897955.8,286047001.0,N
1552897975.7,286047000.1,N
1552897995.5,286046999.9,N
1552898015.3,286046999.8,N
1552898035.2,286047002.4,N
1552898055.9,286047002.5,N
1552898075.7,286047001.7,N
1552898095.6,286047001.3,N
1552898115.4,286047002.1,N
1552898135.2,286047003.9,N
1552898155.1,286047003.7,N
1552898156.0,286047003.7,N
1552898175.8,286047003.4,N
1552898195.6,286047005.6,N
1552898215.5,286047005.7,N
1552898235.3,286047004.7,N
1552898255.1,286047004.6,N
1552898275.8,286047007.1,N
1552898295.7,286047007.0,N
1552898315.5,286047006.9,N
1552898335.3,286047006.3,N
1552898355.2,286047009.1,Y
1552898375.0,286047007.2,P
1552898375.9,286047007.2,N
1552898395.7,286047005.0,N
1552898415.6,286047005.0,N
1552898435.4,286047004.9,N
1552898455.2,286047007.0,Y
1552898475.1,286046999.7,P
1552898476.0,286046999.7,N
1552898495.8,286047002.7,N
1552898515.6,286047002.1,N
1552898535.5,286047002.8,N
1552898555.3,286047001.9,N
1552898575.1,286047001.5,N
1552898595.9,286047002.2,N
1552898615.7,286047002.8,N
1552898635.5,286047001.8,N
1552898655.4,286047001.7,N
1552898675.2,286047001.9,N
1552898695.0,286047001.8,N
1552898695.9,286047001.8,N
1552898715.8,286047004.4,Y
1552898735.6,286047002.8,P
1552898755.4,286047002.6,P
1552898775.3,286047001.7,P
1552898795.1,286047001.6,Y
1552898815.8,286047000.2,P
1552898835.7,286047002.4,N
1552898855.5,286047002.0,N
1552898875.3,286047002.2,N
1552898895.2,286047001.9,N
1552898915.9,286047001.5,N
1552898935.7,286047001.7,N
1552898955.6,286047001.3,N
1552898975.4,286047003.5,Y
1552898995.2,286047002.6,P
1552899015.1,286047002.6,P
1552899016.0,286047002.6,P
1552899035.8,286047002.5,Y
1552899055.6,286046998.5,P
1552899075.5,286046998.1,N
1552899095.3,286047001.2,N
1552899115.1,286046998.1,N
1552899135.9,286046998.2,N
1552899155.7,286047000.4,N
1552899175.5,286047002.8,N
1552899195.3,286046999.9,N
1552899215.2,286046999.8,N
1552899235.0,286047002.2,N
1552899235.9,286047002.2,N
1552899255.7,286047002.3,N
1552899275.6,286047001.7,N
1552899295.4,286047002.5,N
1552899315.2,286047002.2,N
1552899335.1,286047002.0,N
1552899336.0,286047002.0,N
1552899355.8,286047001.4,N
1552899375.6,286047003.9,N
1552899395.5,286047004.4,N
1552899415.3,286047004.4,N
1552899435.1,286047003.1,N
1552899455.9,286047002.9,N
1552899475.7,286047005.5,N
1552899495.5,286047005.3,N
1552899515.3,286047004.8,N
1552899535.2,286047004.7,N
1552899555.0,286047005.0,N
1552899555.9,286047005.0,N
1552899575.7,286047005.2,N
1552899595.6,286047004.9,N
